owner,sensor,date,latitude,longitude,vertical_datum,sea_water_temperature,qcFlag 
NDBC,ioos:station:wmo:42001:1,2014-07-17T16:50:00Z,25.8880,-89.6580,-1.0,29.6,2 
NDBC,ioos:station:wmo:42001:1,2014-07-17T17:50:00Z,25.8880,-89.6580,-1.0,31.4,2 
NDBC,ioos:station:wmo:42001:1,2014-07-17T18:50:00Z,25.8880,-89.6580,-1.0,30.3,2 
NDBC,ioos:station:wmo:42001:1,2014-07-17T19:50:00Z,25.8880,-89.6580,-1.0,30.3,2 
NDBC,ioos:station:wmo:42001:1,2014-07-17T20:50:00Z,25.8880,-89.6580,-1.0,30.3,2 
NDBC,ioos:station:wmo:42001:1,2014-07-17T21:50:00Z,25.8880,-89.6580,-1.0,30.3,2 
NDBC,ioos:station:wmo:42001:1,2014-07-17T22:50:00Z,25.8880,-89.6580,-1.0,30.3,2 
NDBC,ioos:station:wmo:42001:1,2014-07-17T23:50:00Z,25.8880,-89.6580,-1.0,30.3,2 
NDBC,ioos:station:wmo:42001:1,2014-07-18T00:50:00Z,25.8880,-89.6580,-1.0,30.2,2 
NDBC,ioos:station:wmo:42001:1,2014-07-18T01:50:00Z,25.8880,-89.6580,-1.0,30.1,2 
NDBC,ioos:station:wmo:42001:1,2014-07-18T02:50:00Z,25.8880,-89.6580,-1.0,30.0,2 
NDBC,ioos:station:wmo:42001:1,2014-07-18T03:50:00Z,25.8880,-89.6580,-1.0,29.9,2 
NDBC,ioos:station:wmo:42001:1,2014-07-18T04:50:00Z,25.8880,-89.6580,-1.0,29.9,2 
NDBC,ioos:station:wmo:42001:1,2014-07-18T05:50:00Z,25.8880,-89.6580,-1.0,29.8,2 
NDBC,ioos:station:wmo:42001:1,2014-07-18T08:50:00Z,25.8880,-89.6580,-1.0,29.6,2 
NDBC,ioos:station:wmo:42001:1,2014-07-18T09:50:00Z,25.8880,-89.6580,-1.0,29.6,2 
NDBC,ioos:station:wmo:42001:1,2014-07-18T10:50:00Z,25.8880,-89.6580,-1.0,29.6,2 
NDBC,ioos:station:wmo:42001:1,2014-07-18T11:50:00Z,25.8880,-89.6580,-1.0,29.6,2 
NDBC,ioos:station:wmo:42001:1,2014-07-18T12:50:00Z,25.8880,-89.6580,-1.0,29.6,2 
NDBC,ioos:station:wmo:42001:1,2014-07-18T14:50:00Z,25.8880,-89.6580,-1.0,29.6,2 
NDBC,ioos:station:wmo:42001:1,2014-07-18T15:50:00Z,25.8880,-89.6580,-1.0,29.7,2 
NDBC,ioos:station:wmo:42001:1,2014-07-18T16:50:00Z,25.8880,-89.6580,-1.0,29.8,2 
NDBC,ioos:station:wmo:42001:1,2014-07-18T17:50:00Z,25.8880,-89.6580,-1.0,29.8,2 
NDBC,ioos:station:wmo:42001:1,2014-07-18T18:50:00Z,25.8880,-89.6580,-1.0,29.9,2 
NDBC,ioos:station:wmo:42001:1,2014-07-18T19:50:00Z,25.8880,-89.6580,-1.0,29.9,2 
NDBC,ioos:station:wmo:42001:1,2014-07-18T20:50:00Z,25.8880,-89.6580,-1.0,29.9,2 
NDBC,ioos:station:wmo:42001:1,2014-07-18T21:50:00Z,25.8880,-89.6580,-1.0,29.9,2 
NDBC,ioos:station:wmo:42001:1,2014-07-18T22:50:00Z,25.8880,-89.6580,-1.0,29.8,2 
NDBC,ioos:station:wmo:42001:1,2014-07-18T23:50:00Z,25.8880,-89.6580,-1.0,29.8,2 
NDBC,ioos:station:wmo:42001:1,2014-07-19T00:50:00Z,25.8880,-89.6580,-1.0,29.8,2 
NDBC,ioos:station:wmo:42001:1,2014-07-19T01:50:00Z,25.8880,-89.6580,-1.0,29.8,2 
NDBC,ioos:station:wmo:42001:1,2014-07-19T02:50:00Z,25.8880,-89.6580,-1.0,29.8,2 
NDBC,ioos:station:wmo:42001:1,2014-07-19T03:50:00Z,25.8880,-89.6580,-1.0,29.8,2 
NDBC,ioos:station:wmo:42001:1,2014-07-19T04:50:00Z,25.8880,-89.6580,-1.0,29.7,2 
NDBC,ioos:station:wmo:42001:1,2014-07-19T05:50:00Z,25.8880,-89.6580,-1.0,29.7,2 
NDBC,ioos:station:wmo:42001:1,2014-07-19T06:50:00Z,25.8880,-89.6580,-1.0,29.7,2 
NDBC,ioos:station:wmo:42001:1,2014-07-19T09:50:00Z,25.8880,-89.6580,-1.0,29.6,2 
NDBC,ioos:station:wmo:42001:1,2014-07-19T10:50:00Z,25.8880,-89.6580,-1.0,29.5,2 
NDBC,ioos:station:wmo:42001:1,2014-07-19T11:50:00Z,25.8880,-89.6580,-1.0,29.3,2 
NDBC,ioos:station:wmo:42001:1,2014-07-19T12:50:00Z,25.8880,-89.6580,-1.0,29.3,2 
NDBC,ioos:station:wmo:42001:1,2014-07-19T13:50:00Z,25.8880,-89.6580,-1.0,29.5,2 
NDBC,ioos:station:wmo:42001:1,2014-07-19T14:50:00Z,25.8880,-89.6580,-1.0,29.6,2 
NDBC,ioos:station:wmo:42001:1,2014-07-19T15:50:00Z,25.8880,-89.6580,-1.0,29.6,2 
NDBC,ioos:station:wmo:42001:1,2014-07-19T16:50:00Z,25.8880,-89.6580,-1.0,29.7,2 
NDBC,ioos:station:wmo:42001:1,2014-07-19T17:50:00Z,25.8880,-89.6580,-1.0,29.8,2 
NDBC,ioos:station:wmo:42001:1,2014-07-19T18:50:00Z,25.8880,-89.6580,-1.0,29.8,2 
NDBC,ioos:station:wmo:42001:1,2014-07-19T19:50:00Z,25.8880,-89.6580,-1.0,30.0,2 
NDBC,ioos:station:wmo:42001:1,2014-07-19T20:50:00Z,25.8880,-89.6580,-1.0,30.1,2 
NDBC,ioos:station:wmo:42001:1,2014-07-19T21:50:00Z,25.8880,-89.6580,-1.0,30.2,2 
NDBC,ioos:station:wmo:42001:1,2014-07-19T22:50:00Z,25.8880,-89.6580,-1.0,30.1,2 
NDBC,ioos:station:wmo:42001:1,2014-07-19T23:50:00Z,25.8880,-89.6580,-1.0,30.1,2 
NDBC,ioos:station:wmo:42001:1,2014-07-20T00:50:00Z,25.8880,-89.6580,-1.0,29.9,2 
NDBC,ioos:station:wmo:42001:1,2014-07-20T01:50:00Z,25.8880,-89.6580,-1.0,29.9,2 
NDBC,ioos:station:wmo:42001:1,2014-07-20T02:50:00Z,25.8880,-89.6580,-1.0,29.8,2 
NDBC,ioos:station:wmo:42001:1,2014-07-20T03:50:00Z,25.8880,-89.6580,-1.0,29.8,2 
NDBC,ioos:station:wmo:42001:1,2014-07-20T04:50:00Z,25.8880,-89.6580,-1.0,29.8,2 
NDBC,ioos:station:wmo:42001:1,2014-07-20T05:50:00Z,25.8880,-89.6580,-1.0,29.8,2 
NDBC,ioos:station:wmo:42001:1,2014-07-20T08:50:00Z,25.8880,-89.6580,-1.0,29.7,2 
NDBC,ioos:station:wmo:42001:1,2014-07-20T09:50:00Z,25.8880,-89.6580,-1.0,29.6,2 
NDBC,ioos:station:wmo:42001:1,2014-07-20T10:50:00Z,25.8880,-89.6580,-1.0,29.6,2 
NDBC,ioos:station:wmo:42001:1,2014-07-20T11:50:00Z,25.8880,-89.6580,-1.0,29.7,2 
NDBC,ioos:station:wmo:42001:1,2014-07-20T12:50:00Z,25.8880,-89.6580,-1.0,29.6,2 
NDBC,ioos:station:wmo:42001:1,2014-07-20T13:50:00Z,25.8880,-89.6580,-1.0,29.7,2 
NDBC,ioos:station:wmo:42001:1,2014-07-20T14:50:00Z,25.8880,-89.6580,-1.0,29.8,2 
NDBC,ioos:station:wmo:42001:1,2014-07-20T15:50:00Z,25.8880,-89.6580,-1.0,29.9,2 
NDBC,ioos:station:wmo:42001:1,2014-07-20T16:50:00Z,25.8880,-89.6580,-1.0,30.0,2 
NDBC,ioos:station:wmo:42001:1,2014-07-20T17:50:00Z,25.8880,-89.6580,-1.0,30.2,2 
NDBC,ioos:station:wmo:42001:1,2014-07-20T18:50:00Z,25.8880,-89.6580,-1.0,30.7,2 
NDBC,ioos:station:wmo:42001:1,2014-07-20T19:50:00Z,25.8880,-89.6580,-1.0,30.6,2 
NDBC,ioos:station:wmo:42001:1,2014-07-20T20:50:00Z,25.8880,-89.6580,-1.0,30.3,2 
NDBC,ioos:station:wmo:42001:1,2014-07-20T21:50:00Z,25.8880,-89.6580,-1.0,30.3,2 
NDBC,ioos:station:wmo:42001:1,2014-07-20T22:50:00Z,25.8880,-89.6580,-1.0,30.2,2 
NDBC,ioos:station:wmo:42001:1,2014-07-20T23:50:00Z,25.8880,-89.6580,-1.0,30.1,2 
NDBC,ioos:station:wmo:42001:1,2014-07-21T00:50:00Z,25.8880,-89.6580,-1.0,30.1,2 
NDBC,ioos:station:wmo:42001:1,2014-07-21T01:50:00Z,25.8880,-89.6580,-1.0,30.1,2 
NDBC,ioos:station:wmo:42001:1,2014-07-21T02:50:00Z,25.8880,-89.6580,-1.0,30.2,2 
NDBC,ioos:station:wmo:42001:1,2014-07-21T03:50:00Z,25.8880,-89.6580,-1.0,29.9,2 
NDBC,ioos:station:wmo:42001:1,2014-07-21T04:50:00Z,25.8880,-89.6580,-1.0,29.9,2 
NDBC,ioos:station:wmo:42001:1,2014-07-21T05:50:00Z,25.8880,-89.6580,-1.0,30.0,2 
NDBC,ioos:station:wmo:42001:1,2014-07-21T08:50:00Z,25.8880,-89.6580,-1.0,30.1,2 
NDBC,ioos:station:wmo:42001:1,2014-07-21T09:50:00Z,25.8880,-89.6580,-1.0,30.2,2 
NDBC,ioos:station:wmo:42001:1,2014-07-21T10:50:00Z,25.8880,-89.6580,-1.0,30.2,2 
NDBC,ioos:station:wmo:42001:1,2014-07-21T11:50:00Z,25.8880,-89.6580,-1.0,30.0,2 
NDBC,ioos:station:wmo:42001:1,2014-07-21T12:50:00Z,25.8880,-89.6580,-1.0,30.0,2 
NDBC,ioos:station:wmo:42001:1,2014-07-21T13:50:00Z,25.8880,-89.6580,-1.0,30.1,2 
NDBC,ioos:station:wmo:42001:1,2014-07-21T14:50:00Z,25.8880,-89.6580,-1.0,30.2,2 
NDBC,ioos:station:wmo:42001:1,2014-07-21T15:50:00Z,25.8880,-89.6580,-1.0,30.4,2 
NDBC,ioos:station:wmo:42001:1,2014-07-21T16:50:00Z,25.8880,-89.6580,-1.0,30.6,2 
NDBC,ioos:station:wmo:42001:1,2014-07-21T17:50:00Z,25.8880,-89.6580,-1.0,30.9,2 
NDBC,ioos:station:wmo:42001:1,2014-07-21T18:50:00Z,25.8880,-89.6580,-1.0,31.2,2 
NDBC,ioos:station:wmo:42001:1,2014-07-21T20:50:00Z,25.8880,-89.6580,-1.0,31.4,2 
NDBC,ioos:station:wmo:42001:1,2014-07-21T21:50:00Z,25.8880,-89.6580,-1.0,31.5,2 
NDBC,ioos:station:wmo:42001:1,2014-07-21T22:50:00Z,25.8880,-89.6580,-1.0,31.4,2 
NDBC,ioos:station:wmo:42001:1,2014-07-21T23:50:00Z,25.8880,-89.6580,-1.0,31.2,2 
NDBC,ioos:station:wmo:42001:1,2014-07-22T00:50:00Z,25.8880,-89.6580,-1.0,31.0,2 
NDBC,ioos:station:wmo:42001:1,2014-07-22T01:50:00Z,25.8880,-89.6580,-1.0,30.9,2 
NDBC,ioos:station:wmo:42001:1,2014-07-22T02:50:00Z,25.8880,-89.6580,-1.0,30.8,2 
NDBC,ioos:station:wmo:42001:1,2014-07-22T03:50:00Z,25.8880,-89.6580,-1.0,30.6,2 
NDBC,ioos:station:wmo:42001:1,2014-07-22T04:50:00Z,25.8880,-89.6580,-1.0,30.6,2 
NDBC,ioos:station:wmo:42001:1,2014-07-22T05:50:00Z,25.8880,-89.6580,-1.0,30.4,2 
NDBC,ioos:station:wmo:42001:1,2014-07-22T08:50:00Z,25.8880,-89.6580,-1.0,30.3,2 
NDBC,ioos:station:wmo:42001:1,2014-07-22T09:50:00Z,25.8880,-89.6580,-1.0,30.3,2 
NDBC,ioos:station:wmo:42001:1,2014-07-22T10:50:00Z,25.8880,-89.6580,-1.0,30.3,2 
NDBC,ioos:station:wmo:42001:1,2014-07-22T11:50:00Z,25.8880,-89.6580,-1.0,30.3,2 
NDBC,ioos:station:wmo:42001:1,2014-07-22T12:50:00Z,25.8880,-89.6580,-1.0,30.3,2 
NDBC,ioos:station:wmo:42001:1,2014-07-22T13:50:00Z,25.8880,-89.6580,-1.0,30.4,2 
NDBC,ioos:station:wmo:42001:1,2014-07-22T14:50:00Z,25.8880,-89.6580,-1.0,30.3,2 
NDBC,ioos:station:wmo:42001:1,2014-07-22T15:50:00Z,25.8880,-89.6580,-1.0,30.3,2 
NDBC,ioos:station:wmo:42001:1,2014-07-22T16:50:00Z,25.8880,-89.6580,-1.0,30.5,2 
NDBC,ioos:station:wmo:42001:1,2014-07-22T17:50:00Z,25.8880,-89.6580,-1.0,30.9,2 
NDBC,ioos:station:wmo:42001:1,2014-07-22T18:50:00Z,25.8880,-89.6580,-1.0,31.4,2 
NDBC,ioos:station:wmo:42001:1,2014-07-22T19:50:00Z,25.8880,-89.6580,-1.0,31.2,2 
NDBC,ioos:station:wmo:42001:1,2014-07-22T20:50:00Z,25.8880,-89.6580,-1.0,31.5,2 
NDBC,ioos:station:wmo:42001:1,2014-07-22T21:50:00Z,25.8880,-89.6580,-1.0,31.6,2 
NDBC,ioos:station:wmo:42001:1,2014-07-22T22:50:00Z,25.8880,-89.6580,-1.0,31.5,2 
NDBC,ioos:station:wmo:42001:1,2014-07-22T23:50:00Z,25.8880,-89.6580,-1.0,31.3,2 
NDBC,ioos:station:wmo:42001:1,2014-07-23T00:50:00Z,25.8880,-89.6580,-1.0,30.9,2 
NDBC,ioos:station:wmo:42001:1,2014-07-23T01:50:00Z,25.8880,-89.6580,-1.0,30.6,2 
NDBC,ioos:station:wmo:42001:1,2014-07-23T02:50:00Z,25.8880,-89.6580,-1.0,30.4,2 
NDBC,ioos:station:wmo:42001:1,2014-07-23T03:50:00Z,25.8880,-89.6580,-1.0,30.5,2 
NDBC,ioos:station:wmo:42001:1,2014-07-23T04:50:00Z,25.8880,-89.6580,-1.0,30.2,2 
NDBC,ioos:station:wmo:42001:1,2014-07-23T05:50:00Z,25.8880,-89.6580,-1.0,30.3,2 
NDBC,ioos:station:wmo:42001:1,2014-07-23T08:50:00Z,25.8880,-89.6580,-1.0,30.0,2 
NDBC,ioos:station:wmo:42001:1,2014-07-23T09:50:00Z,25.8880,-89.6580,-1.0,29.8,2 
NDBC,ioos:station:wmo:42001:1,2014-07-23T10:50:00Z,25.8880,-89.6580,-1.0,30.0,2 
NDBC,ioos:station:wmo:42001:1,2014-07-23T11:50:00Z,25.8880,-89.6580,-1.0,30.0,2 
NDBC,ioos:station:wmo:42001:1,2014-07-23T12:50:00Z,25.8880,-89.6580,-1.0,30.0,2 
NDBC,ioos:station:wmo:42001:1,2014-07-23T13:50:00Z,25.8880,-89.6580,-1.0,30.0,2 
NDBC,ioos:station:wmo:42001:1,2014-07-23T14:50:00Z,25.8880,-89.6580,-1.0,30.0,2 
NDBC,ioos:station:wmo:42001:1,2014-07-23T15:50:00Z,25.8880,-89.6580,-1.0,29.9,2 
NDBC,ioos:station:wmo:42001:1,2014-07-23T16:50:00Z,25.8880,-89.6580,-1.0,30.0,2 
NDBC,ioos:station:wmo:42001:1,2014-07-23T17:50:00Z,25.8880,-89.6580,-1.0,30.2,2 
NDBC,ioos:station:wmo:42001:1,2014-07-23T18:50:00Z,25.8880,-89.6580,-1.0,30.4,2 
NDBC,ioos:station:wmo:42001:1,2014-07-23T19:50:00Z,25.8880,-89.6580,-1.0,30.4,2 
NDBC,ioos:station:wmo:42001:1,2014-07-23T20:50:00Z,25.8880,-89.6580,-1.0,30.7,2 
NDBC,ioos:station:wmo:42001:1,2014-07-23T21:50:00Z,25.8880,-89.6580,-1.0,30.8,2 
NDBC,ioos:station:wmo:42001:1,2014-07-23T22:50:00Z,25.8880,-89.6580,-1.0,30.6,2 
NDBC,ioos:station:wmo:42001:1,2014-07-23T23:50:00Z,25.8880,-89.6580,-1.0,30.6,2 
NDBC,ioos:station:wmo:42001:1,2014-07-24T00:50:00Z,25.8880,-89.6580,-1.0,30.4,2 
NDBC,ioos:station:wmo:42001:1,2014-07-24T01:50:00Z,25.8880,-89.6580,-1.0,30.4,2 
NDBC,ioos:station:wmo:42001:1,2014-07-24T02:50:00Z,25.8880,-89.6580,-1.0,30.3,2 
NDBC,ioos:station:wmo:42001:1,2014-07-24T03:50:00Z,25.8880,-89.6580,-1.0,30.3,2 
NDBC,ioos:station:wmo:42001:1,2014-07-24T04:50:00Z,25.8880,-89.6580,-1.0,30.3,2 
NDBC,ioos:station:wmo:42001:1,2014-07-24T05:50:00Z,25.8880,-89.6580,-1.0,30.2,2 
NDBC,ioos:station:wmo:42001:1,2014-07-24T06:50:00Z,25.8880,-89.6580,-1.0,29.9,2 
NDBC,ioos:station:wmo:42001:1,2014-07-24T07:50:00Z,25.8880,-89.6580,-1.0,29.8,2 
NDBC,ioos:station:wmo:42001:1,2014-07-24T08:50:00Z,25.8880,-89.6580,-1.0,29.9,2 
NDBC,ioos:station:wmo:42001:1,2014-07-24T09:50:00Z,25.8880,-89.6580,-1.0,29.8,2 
NDBC,ioos:station:wmo:42001:1,2014-07-24T10:50:00Z,25.8880,-89.6580,-1.0,29.8,2 
NDBC,ioos:station:wmo:42001:1,2014-07-24T11:50:00Z,25.8880,-89.6580,-1.0,29.7,2 
NDBC,ioos:station:wmo:42001:1,2014-07-24T12:50:00Z,25.8880,-89.6580,-1.0,29.7,2 
NDBC,ioos:station:wmo:42001:1,2014-07-24T13:50:00Z,25.8880,-89.6580,-1.0,29.7,2 
NDBC,ioos:station:wmo:42001:1,2014-07-24T14:50:00Z,25.8880,-89.6580,-1.0,29.7,2 
NDBC,ioos:station:wmo:42001:1,2014-07-24T15:50:00Z,25.8880,-89.6580,-1.0,29.8,2 
NDBC,ioos:station:wmo:42001:1,2014-07-24T16:50:00Z,25.8880,-89.6580,-1.0,29.9,2 
NDBC,ioos:station:wmo:42001:1,2014-07-24T17:50:00Z,25.8880,-89.6580,-1.0,30.2,2 
NDBC,ioos:station:wmo:42001:1,2014-07-24T18:50:00Z,25.8880,-89.6580,-1.0,30.5,2 
NDBC,ioos:station:wmo:42001:1,2014-07-24T19:50:00Z,25.8880,-89.6580,-1.0,30.4,2 
NDBC,ioos:station:wmo:42001:1,2014-07-24T20:50:00Z,25.8880,-89.6580,-1.0,30.5,2 
NDBC,ioos:station:wmo:42001:1,2014-07-24T21:50:00Z,25.8880,-89.6580,-1.0,30.4,2 
NDBC,ioos:station:wmo:42001:1,2014-07-24T22:50:00Z,25.8880,-89.6580,-1.0,30.1,2 
NDBC,ioos:station:wmo:42001:1,2014-07-24T23:50:00Z,25.8880,-89.6580,-1.0,29.9,2 
NDBC,ioos:station:wmo:42001:1,2014-07-25T00:50:00Z,25.8880,-89.6580,-1.0,29.8,2 
NDBC,ioos:station:wmo:42001:1,2014-07-25T01:50:00Z,25.8880,-89.6580,-1.0,29.8,2 
NDBC,ioos:station:wmo:42001:1,2014-07-25T02:50:00Z,25.8880,-89.6580,-1.0,29.8,2 
NDBC,ioos:station:wmo:42001:1,2014-07-25T03:50:00Z,25.8880,-89.6580,-1.0,29.8,2 
NDBC,ioos:station:wmo:42001:1,2014-07-25T04:50:00Z,25.8880,-89.6580,-1.0,29.7,2 
NDBC,ioos:station:wmo:42001:1,2014-07-25T05:50:00Z,25.8880,-89.6580,-1.0,29.6,2 
NDBC,ioos:station:wmo:42001:1,2014-07-25T06:50:00Z,25.8880,-89.6580,-1.0,29.6,2 
NDBC,ioos:station:wmo:42001:1,2014-07-25T07:50:00Z,25.8880,-89.6580,-1.0,29.6,2 
NDBC,ioos:station:wmo:42001:1,2014-07-25T08:50:00Z,25.8880,-89.6580,-1.0,29.7,2 
NDBC,ioos:station:wmo:42001:1,2014-07-25T09:50:00Z,25.8880,-89.6580,-1.0,29.6,2 
NDBC,ioos:station:wmo:42001:1,2014-07-25T10:50:00Z,25.8880,-89.6580,-1.0,29.6,2 
NDBC,ioos:station:wmo:42001:1,2014-07-25T11:50:00Z,25.8880,-89.6580,-1.0,29.6,2 
NDBC,ioos:station:wmo:42001:1,2014-07-25T12:50:00Z,25.8880,-89.6580,-1.0,29.7,2 
NDBC,ioos:station:wmo:42001:1,2014-07-25T13:50:00Z,25.8880,-89.6580,-1.0,29.7,2 
NDBC,ioos:station:wmo:42001:1,2014-07-25T14:50:00Z,25.8880,-89.6580,-1.0,29.8,2 
NDBC,ioos:station:wmo:42001:1,2014-07-25T15:50:00Z,25.8880,-89.6580,-1.0,30.0,2 
NDBC,ioos:station:wmo:42001:1,2014-07-25T16:50:00Z,25.8880,-89.6580,-1.0,30.6,2 
NDBC,ioos:station:wmo:42001:1,2014-07-25T17:50:00Z,25.8880,-89.6580,-1.0,30.9,2 
NDBC,ioos:station:wmo:42001:1,2014-07-25T18:50:00Z,25.8880,-89.6580,-1.0,31.4,2 
NDBC,ioos:station:wmo:42001:1,2014-07-25T19:50:00Z,25.8880,-89.6580,-1.0,31.8,2 
NDBC,ioos:station:wmo:42001:1,2014-07-25T20:50:00Z,25.8880,-89.6580,-1.0,31.9,2 
NDBC,ioos:station:wmo:42001:1,2014-07-25T21:50:00Z,25.8880,-89.6580,-1.0,31.9,2 
NDBC,ioos:station:wmo:42001:1,2014-07-25T22:50:00Z,25.8880,-89.6580,-1.0,31.3,2 
NDBC,ioos:station:wmo:42001:1,2014-07-25T23:50:00Z,25.8880,-89.6580,-1.0,31.0,2 
NDBC,ioos:station:wmo:42001:1,2014-07-26T00:50:00Z,25.8880,-89.6580,-1.0,30.8,2 
NDBC,ioos:station:wmo:42001:1,2014-07-26T01:50:00Z,25.8880,-89.6580,-1.0,30.7,2 
NDBC,ioos:station:wmo:42001:1,2014-07-26T02:50:00Z,25.8880,-89.6580,-1.0,30.3,2 
NDBC,ioos:station:wmo:42001:1,2014-07-26T03:50:00Z,25.8880,-89.6580,-1.0,30.2,2 
NDBC,ioos:station:wmo:42001:1,2014-07-26T04:50:00Z,25.8880,-89.6580,-1.0,30.4,2 
NDBC,ioos:station:wmo:42001:1,2014-07-26T05:50:00Z,25.8880,-89.6580,-1.0,30.3,2 
NDBC,ioos:station:wmo:42001:1,2014-07-26T06:50:00Z,25.8880,-89.6580,-1.0,30.4,2 
NDBC,ioos:station:wmo:42001:1,2014-07-26T08:50:00Z,25.8880,-89.6580,-1.0,30.1,2 
NDBC,ioos:station:wmo:42001:1,2014-07-26T09:50:00Z,25.8880,-89.6580,-1.0,29.9,2 
NDBC,ioos:station:wmo:42001:1,2014-07-26T10:50:00Z,25.8880,-89.6580,-1.0,29.8,2 
NDBC,ioos:station:wmo:42001:1,2014-07-26T11:50:00Z,25.8880,-89.6580,-1.0,29.8,2 
NDBC,ioos:station:wmo:42001:1,2014-07-26T12:50:00Z,25.8880,-89.6580,-1.0,30.0,2 
NDBC,ioos:station:wmo:42001:1,2014-07-26T13:50:00Z,25.8880,-89.6580,-1.0,30.1,2 
NDBC,ioos:station:wmo:42001:1,2014-07-26T14:50:00Z,25.8880,-89.6580,-1.0,30.3,2 
NDBC,ioos:station:wmo:42001:1,2014-07-26T15:50:00Z,25.8880,-89.6580,-1.0,30.8,2 
NDBC,ioos:station:wmo:42001:1,2014-07-26T16:50:00Z,25.8880,-89.6580,-1.0,31.3,2 
NDBC,ioos:station:wmo:42001:1,2014-07-26T17:50:00Z,25.8880,-89.6580,-1.0,31.4,2 
NDBC,ioos:station:wmo:42001:1,2014-07-26T18:50:00Z,25.8880,-89.6580,-1.0,31.7,2 
NDBC,ioos:station:wmo:42001:1,2014-07-26T19:50:00Z,25.8880,-89.6580,-1.0,32.0,2 
NDBC,ioos:station:wmo:42001:1,2014-07-26T20:50:00Z,25.8880,-89.6580,-1.0,32.5,2 
NDBC,ioos:station:wmo:42001:1,2014-07-26T21:50:00Z,25.8880,-89.6580,-1.0,32.7,2 
NDBC,ioos:station:wmo:42001:1,2014-07-26T22:50:00Z,25.8880,-89.6580,-1.0,32.4,2 
NDBC,ioos:station:wmo:42001:1,2014-07-26T23:50:00Z,25.8880,-89.6580,-1.0,31.7,2 
NDBC,ioos:station:wmo:42001:1,2014-07-27T00:50:00Z,25.8880,-89.6580,-1.0,31.3,2 
NDBC,ioos:station:wmo:42001:1,2014-07-27T01:50:00Z,25.8880,-89.6580,-1.0,31.4,2 
NDBC,ioos:station:wmo:42001:1,2014-07-27T02:50:00Z,25.8880,-89.6580,-1.0,31.3,2 
NDBC,ioos:station:wmo:42001:1,2014-07-27T03:50:00Z,25.8880,-89.6580,-1.0,31.0,2 
NDBC,ioos:station:wmo:42001:1,2014-07-27T04:50:00Z,25.8880,-89.6580,-1.0,31.0,2 
NDBC,ioos:station:wmo:42001:1,2014-07-27T05:50:00Z,25.8880,-89.6580,-1.0,30.8,2 
NDBC,ioos:station:wmo:42001:1,2014-07-27T07:50:00Z,25.8880,-89.6580,-1.0,30.7,2 
NDBC,ioos:station:wmo:42001:1,2014-07-27T08:50:00Z,25.8880,-89.6580,-1.0,30.7,2 
NDBC,ioos:station:wmo:42001:1,2014-07-27T09:50:00Z,25.8880,-89.6580,-1.0,30.5,2 
NDBC,ioos:station:wmo:42001:1,2014-07-27T10:50:00Z,25.8880,-89.6580,-1.0,30.5,2 
NDBC,ioos:station:wmo:42001:1,2014-07-27T11:50:00Z,25.8880,-89.6580,-1.0,30.4,2 
NDBC,ioos:station:wmo:42001:1,2014-07-27T12:50:00Z,25.8880,-89.6580,-1.0,30.4,2 
NDBC,ioos:station:wmo:42001:1,2014-07-27T13:50:00Z,25.8880,-89.6580,-1.0,30.4,2 
NDBC,ioos:station:wmo:42001:1,2014-07-27T14:50:00Z,25.8880,-89.6580,-1.0,30.4,2 
NDBC,ioos:station:wmo:42001:1,2014-07-27T15:50:00Z,25.8880,-89.6580,-1.0,30.7,2 
NDBC,ioos:station:wmo:42001:1,2014-07-27T16:50:00Z,25.8880,-89.6580,-1.0,31.1,2 
NDBC,ioos:station:wmo:42001:1,2014-07-27T17:50:00Z,25.8880,-89.6580,-1.0,31.5,2 
NDBC,ioos:station:wmo:42001:1,2014-07-27T18:50:00Z,25.8880,-89.6580,-1.0,31.7,2 
NDBC,ioos:station:wmo:42001:1,2014-07-27T19:50:00Z,25.8880,-89.6580,-1.0,31.9,2 
NDBC,ioos:station:wmo:42001:1,2014-07-27T20:50:00Z,25.8880,-89.6580,-1.0,32.0,2 
NDBC,ioos:station:wmo:42001:1,2014-07-27T21:50:00Z,25.8880,-89.6580,-1.0,32.1,2 
NDBC,ioos:station:wmo:42001:1,2014-07-27T22:50:00Z,25.8880,-89.6580,-1.0,31.9,2 
NDBC,ioos:station:wmo:42001:1,2014-07-27T23:50:00Z,25.8880,-89.6580,-1.0,31.4,2 
NDBC,ioos:station:wmo:42001:1,2014-07-28T00:50:00Z,25.8880,-89.6580,-1.0,31.4,2 
NDBC,ioos:station:wmo:42001:1,2014-07-28T01:50:00Z,25.8880,-89.6580,-1.0,31.1,2 
NDBC,ioos:station:wmo:42001:1,2014-07-28T02:50:00Z,25.8880,-89.6580,-1.0,31.0,2 
NDBC,ioos:station:wmo:42001:1,2014-07-28T03:50:00Z,25.8880,-89.6580,-1.0,31.1,2 
NDBC,ioos:station:wmo:42001:1,2014-07-28T04:50:00Z,25.8880,-89.6580,-1.0,30.9,2 
NDBC,ioos:station:wmo:42001:1,2014-07-28T05:50:00Z,25.8880,-89.6580,-1.0,30.8,2 
NDBC,ioos:station:wmo:42001:1,2014-07-28T08:50:00Z,25.8880,-89.6580,-1.0,30.7,2 
NDBC,ioos:station:wmo:42001:1,2014-07-28T09:50:00Z,25.8880,-89.6580,-1.0,30.7,2 
NDBC,ioos:station:wmo:42001:1,2014-07-28T10:50:00Z,25.8880,-89.6580,-1.0,30.6,2 
NDBC,ioos:station:wmo:42001:1,2014-07-28T11:50:00Z,25.8880,-89.6580,-1.0,30.6,2 
NDBC,ioos:station:wmo:42001:1,2014-07-28T12:50:00Z,25.8880,-89.6580,-1.0,30.6,2 
NDBC,ioos:station:wmo:42001:1,2014-07-28T13:50:00Z,25.8880,-89.6580,-1.0,30.8,2 
NDBC,ioos:station:wmo:42001:1,2014-07-28T14:50:00Z,25.8880,-89.6580,-1.0,31.1,2 
NDBC,ioos:station:wmo:42001:1,2014-07-28T15:50:00Z,25.8880,-89.6580,-1.0,31.4,2 
NDBC,ioos:station:wmo:42001:1,2014-07-28T16:50:00Z,25.8880,-89.6580,-1.0,31.7,2 
NDBC,ioos:station:wmo:42001:1,2014-07-28T17:50:00Z,25.8880,-89.6580,-1.0,32.7,2 
NDBC,ioos:station:wmo:42001:1,2014-07-28T18:50:00Z,25.8880,-89.6580,-1.0,32.5,2 
NDBC,ioos:station:wmo:42001:1,2014-07-28T19:50:00Z,25.8880,-89.6580,-1.0,32.4,2 
NDBC,ioos:station:wmo:42001:1,2014-07-28T20:50:00Z,25.8880,-89.6580,-1.0,32.1,2 
NDBC,ioos:station:wmo:42001:1,2014-07-28T21:50:00Z,25.8880,-89.6580,-1.0,32.2,2 
NDBC,ioos:station:wmo:42001:1,2014-07-28T22:50:00Z,25.8880,-89.6580,-1.0,32.3,2 
NDBC,ioos:station:wmo:42001:1,2014-07-28T23:50:00Z,25.8880,-89.6580,-1.0,32.2,2 
NDBC,ioos:station:wmo:42001:1,2014-07-29T00:50:00Z,25.8880,-89.6580,-1.0,31.6,2 
NDBC,ioos:station:wmo:42001:1,2014-07-29T01:50:00Z,25.8880,-89.6580,-1.0,31.5,2 
NDBC,ioos:station:wmo:42001:1,2014-07-29T02:50:00Z,25.8880,-89.6580,-1.0,31.5,2 
NDBC,ioos:station:wmo:42001:1,2014-07-29T03:50:00Z,25.8880,-89.6580,-1.0,31.5,2 
NDBC,ioos:station:wmo:42001:1,2014-07-29T04:50:00Z,25.8880,-89.6580,-1.0,31.2,2 
NDBC,ioos:station:wmo:42001:1,2014-07-29T05:50:00Z,25.8880,-89.6580,-1.0,31.5,2 
NDBC,ioos:station:wmo:42001:1,2014-07-29T06:50:00Z,25.8880,-89.6580,-1.0,31.5,2 
NDBC,ioos:station:wmo:42001:1,2014-07-29T07:50:00Z,25.8880,-89.6580,-1.0,31.3,2 
NDBC,ioos:station:wmo:42001:1,2014-07-29T08:50:00Z,25.8880,-89.6580,-1.0,31.4,2 
NDBC,ioos:station:wmo:42001:1,2014-07-29T09:50:00Z,25.8880,-89.6580,-1.0,31.3,2 
NDBC,ioos:station:wmo:42001:1,2014-07-29T10:50:00Z,25.8880,-89.6580,-1.0,31.1,2 
NDBC,ioos:station:wmo:42001:1,2014-07-29T11:50:00Z,25.8880,-89.6580,-1.0,31.0,2 
NDBC,ioos:station:wmo:42001:1,2014-07-29T12:50:00Z,25.8880,-89.6580,-1.0,30.8,2 
NDBC,ioos:station:wmo:42001:1,2014-07-29T13:50:00Z,25.8880,-89.6580,-1.0,30.8,2 
NDBC,ioos:station:wmo:42001:1,2014-07-29T14:50:00Z,25.8880,-89.6580,-1.0,30.7,2 
NDBC,ioos:station:wmo:42001:1,2014-07-29T15:50:00Z,25.8880,-89.6580,-1.0,30.8,2 
NDBC,ioos:station:wmo:42001:1,2014-07-29T16:50:00Z,25.8880,-89.6580,-1.0,30.9,2 
NDBC,ioos:station:wmo:42001:1,2014-07-29T17:50:00Z,25.8880,-89.6580,-1.0,31.0,2 
NDBC,ioos:station:wmo:42001:1,2014-07-29T18:50:00Z,25.8880,-89.6580,-1.0,31.1,2 
NDBC,ioos:station:wmo:42001:1,2014-07-29T19:50:00Z,25.8880,-89.6580,-1.0,31.2,2 
NDBC,ioos:station:wmo:42001:1,2014-07-29T20:50:00Z,25.8880,-89.6580,-1.0,31.2,2 
NDBC,ioos:station:wmo:42001:1,2014-07-29T21:50:00Z,25.8880,-89.6580,-1.0,31.2,2 
NDBC,ioos:station:wmo:42001:1,2014-07-29T22:50:00Z,25.8880,-89.6580,-1.0,31.4,2 
NDBC,ioos:station:wmo:42001:1,2014-07-29T23:50:00Z,25.8880,-89.6580,-1.0,31.3,2 
NDBC,ioos:station:wmo:42001:1,2014-07-30T00:50:00Z,25.8880,-89.6580,-1.0,31.1,2 
NDBC,ioos:station:wmo:42001:1,2014-07-30T01:50:00Z,25.8880,-89.6580,-1.0,30.8,2 
NDBC,ioos:station:wmo:42001:1,2014-07-30T02:50:00Z,25.8880,-89.6580,-1.0,30.8,2 
NDBC,ioos:station:wmo:42001:1,2014-07-30T03:50:00Z,25.8880,-89.6580,-1.0,30.7,2 
NDBC,ioos:station:wmo:42001:1,2014-07-30T04:50:00Z,25.8880,-89.6580,-1.0,30.7,2 
NDBC,ioos:station:wmo:42001:1,2014-07-30T05:50:00Z,25.8880,-89.6580,-1.0,30.7,2 
NDBC,ioos:station:wmo:42001:1,2014-07-30T08:50:00Z,25.8880,-89.6580,-1.0,30.7,2 
NDBC,ioos:station:wmo:42001:1,2014-07-30T09:50:00Z,25.8880,-89.6580,-1.0,30.7,2 
NDBC,ioos:station:wmo:42001:1,2014-07-30T10:50:00Z,25.8880,-89.6580,-1.0,30.7,2 
NDBC,ioos:station:wmo:42001:1,2014-07-30T11:50:00Z,25.8880,-89.6580,-1.0,30.7,2 
NDBC,ioos:station:wmo:42001:1,2014-07-30T12:50:00Z,25.8880,-89.6580,-1.0,30.7,2 
NDBC,ioos:station:wmo:42001:1,2014-07-30T13:50:00Z,25.8880,-89.6580,-1.0,30.7,2 
NDBC,ioos:station:wmo:42001:1,2014-07-30T14:50:00Z,25.8880,-89.6580,-1.0,30.8,2 
NDBC,ioos:station:wmo:42001:1,2014-07-30T15:50:00Z,25.8880,-89.6580,-1.0,30.8,2 
NDBC,ioos:station:wmo:42001:1,2014-07-30T16:50:00Z,25.8880,-89.6580,-1.0,30.9,2 
NDBC,ioos:station:wmo:42001:1,2014-07-30T17:50:00Z,25.8880,-89.6580,-1.0,31.1,2 
NDBC,ioos:station:wmo:42001:1,2014-07-30T18:50:00Z,25.8880,-89.6580,-1.0,31.2,2 